Location: Unspecified
(0.0000°N, 0.0000°E)
Time: 12:17:35
(UTC+00:00)

X-37B - Visible Passes

Search period start: 07 October 2022 00:00
Search period end: 17 October 2022 00:00
Orbit: 329 x 342 km, 45.0° (Epoch: 29 September)

Date Brightness Start Highest point End Pass type
(mag) Time Alt. Az. Time Alt. Az. Time Alt. Az.
07 Oct 1.6 18:33:39 10° S 18:36:01 24° SE 18:36:46 21° ESE visible
08 Oct 1.2 18:53:41 10° WSW 18:56:23 44° NW 18:57:19 30° N visible
10 Oct 3.4 05:02:55 10° NNE 05:03:57 11° NE 05:05:00 10° ENE visible
11 Oct 0.8 05:21:30 10° NW 05:24:20 61° NE 05:27:11 10° SE visible
12 Oct 3.5 04:09:06 11° NE 04:09:22 11° NE 04:10:21 10° ENE visible
13 Oct 0.6 04:29:37 58° NNE 04:29:46 60° NE 04:32:36 10° SE visible
14 Oct 1.9 04:50:03 20° SW 04:50:08 20° SW 04:52:22 10° S visible
